When you browse on this site, cookies collect data to enhance your experience and personalize the content and advertising you see.
Visit our Privacy Policy to learn more. By continuing to use the site, you agree to this use of cookies and data.

Previsão horária em Scheberiha

Hoje, 11 Agosto, Terça-feira

Tempo Temperatura Precipitação Vento Pressão Humidade
00:00 +12°C° 0 mm 2 m/s 743 mmHg 94%
01:00 +12°C° 0 mm 2 m/s 743 mmHg 95%
02:00 +10°C° 0 mm 2 m/s 743 mmHg 96%
03:00 +10°C° 0 mm 2 m/s 743 mmHg 97%
04:00 +9°C° 0 mm 2 m/s 743 mmHg 97%
05:00 +9°C° 0 mm 2 m/s 743 mmHg 97%
06:00 +10°C° 0 mm 2 m/s 743 mmHg 93%
07:00 +11°C° 0 mm 3 m/s 743 mmHg 88%
08:00 +12°C° 0 mm 3 m/s 744 mmHg 84%
09:00 +13°C° 0 mm 4 m/s 744 mmHg 79%
10:00 +14°C° 0 mm 4 m/s 744 mmHg 75%
11:00 +14°C° 0 mm 4 m/s 743 mmHg 70%
12:00 +14°C° 0.1 mm 4 m/s 744 mmHg 68%
13:00 +15°C° 0.1 mm 5 m/s 744 mmHg 66%
14:00 +15°C° 0.1 mm 5 m/s 744 mmHg 64%
15:00 +15°C° 0 mm 5 m/s 744 mmHg 68%
16:00 +14°C° 0 mm 5 m/s 743 mmHg 71%
17:00 +13°C° 0 mm 5 m/s 743 mmHg 75%
18:00 +13°C° 0 mm 4 m/s 743 mmHg 78%
19:00 +13°C° 0 mm 4 m/s 744 mmHg 80%
20:00 +12°C° 0 mm 4 m/s 744 mmHg 83%
21:00 +12°C° 0 mm 4 m/s 744 mmHg 84%
22:00 +12°C° 0 mm 4 m/s 744 mmHg 85%
23:00 +12°C° 0 mm 4 m/s 744 mmHg 86%

Amanhã, 12 Agosto, Quarta-feira

Tempo Temperatura Precipitação Vento Pressão Humidade
00:00 +12°C° 0 mm 4 m/s 744 mmHg 86%
01:00 +12°C° 0 mm 3 m/s 744 mmHg 86%
02:00 +12°C° 0 mm 3 m/s 744 mmHg 86%
03:00 +11°C° 0 mm 3 m/s 744 mmHg 88%
04:00 +10°C° 0 mm 3 m/s 744 mmHg 91%
05:00 +9°C° 0 mm 3 m/s 744 mmHg 94%
06:00 +10°C° 0 mm 3 m/s 744 mmHg 86%
07:00 +12°C° 0 mm 3 m/s 745 mmHg 78%
08:00 +13°C° 0 mm 4 m/s 745 mmHg 70%
09:00 +14°C° 0 mm 4 m/s 745 mmHg 67%
10:00 +15°C° 0 mm 4 m/s 745 mmHg 63%
11:00 +17°C° 0 mm 4 m/s 745 mmHg 59%
12:00 +17°C° 0.1 mm 4 m/s 745 mmHg 59%
13:00 +17°C° 0.1 mm 4 m/s 745 mmHg 58%
14:00 +17°C° 0.1 mm 4 m/s 745 mmHg 58%
15:00 +17°C° 0 mm 4 m/s 745 mmHg 58%
16:00 +17°C° 0 mm 4 m/s 745 mmHg 57%
17:00 +15°C° 0 mm 4 m/s 745 mmHg 57%
18:00 +14°C° 0 mm 3 m/s 745 mmHg 64%
19:00 +13°C° 0 mm 2 m/s 745 mmHg 72%
20:00 +10°C° 0 mm 2 m/s 745 mmHg 80%
21:00 +11°C° 0 mm 1 m/s 745 mmHg 81%
22:00 +10°C° 0 mm 1 m/s 745 mmHg 82%
23:00 +10°C° 0 mm 1 m/s 745 mmHg 83%

Depois de amanhã, 13 Agosto, Quinta-feira

Tempo Temperatura Precipitação Vento Pressão Humidade
00:00 +9°C° 0 mm 1 m/s 745 mmHg 85%
01:00 +9°C° 0 mm 1 m/s 745 mmHg 88%
02:00 +9°C° 0 mm 1 m/s 745 mmHg 90%
03:00 +9°C° 0 mm 1 m/s 745 mmHg 89%
04:00 +9°C° 0 mm 1 m/s 745 mmHg 89%
05:00 +9°C° 0 mm 1 m/s 745 mmHg 88%
06:00 +10°C° 0 mm 1 m/s 745 mmHg 82%
07:00 +12°C° 0 mm 2 m/s 744 mmHg 76%
08:00 +13°C° 0 mm 2 m/s 744 mmHg 70%
09:00 +14°C° 0.1 mm 2 m/s 744 mmHg 63%
10:00 +15°C° 0.1 mm 2 m/s 744 mmHg 57%
11:00 +16°C° 0.1 mm 2 m/s 744 mmHg 51%
12:00 +16°C° 0 mm 2 m/s 744 mmHg 50%
13:00 +17°C° 0 mm 2 m/s 744 mmHg 49%
14:00 +17°C° 0 mm 2 m/s 744 mmHg 48%
15:00 +17°C° 0 mm 2 m/s 744 mmHg 49%
16:00 +17°C° 0 mm 2 m/s 744 mmHg 51%
17:00 +16°C° 0 mm 2 m/s 744 mmHg 53%
18:00 +15°C° 0 mm 2 m/s 744 mmHg 61%
19:00 +13°C° 0 mm 1 m/s 744 mmHg 69%
20:00 +11°C° 0 mm 1 m/s 744 mmHg 77%
21:00 +11°C° 0 mm 1 m/s 744 mmHg 79%
22:00 +10°C° 0 mm 1 m/s 744 mmHg 81%
23:00 +10°C° 0 mm 1 m/s 744 mmHg 83%

14 Agosto, Sexta-feira

Tempo Temperatura Precipitação Vento Pressão Humidade
00:00 +9°C° 0 mm 1 m/s 744 mmHg 85%
01:00 +9°C° 0 mm 1 m/s 744 mmHg 88%
02:00 +8°C° 0 mm 1 m/s 744 mmHg 90%
03:00 +8°C° 0 mm 1 m/s 744 mmHg 90%
04:00 +8°C° 0 mm 1 m/s 744 mmHg 90%
05:00 +7°C° 0 mm 0 m/s 744 mmHg 90%
06:00 +10°C° 0 mm 0 m/s 744 mmHg 81%
07:00 +13°C° 0 mm 0 m/s 744 mmHg 71%
08:00 +15°C° 0 mm 0 m/s 744 mmHg 62%
09:00 +17°C° 0 mm 0 m/s 744 mmHg 57%
10:00 +19°C° 0 mm 0 m/s 744 mmHg 51%
11:00 +21°C° 0 mm 0 m/s 744 mmHg 46%
12:00 +21°C° 0 mm 0 m/s 744 mmHg 45%
13:00 +23°C° 0 mm 1 m/s 743 mmHg 44%
14:00 +23°C° 0 mm 1 m/s 743 mmHg 43%
15:00 +22°C° 0 mm 1 m/s 743 mmHg 46%
16:00 +22°C° 0 mm 1 m/s 743 mmHg 49%
17:00 +21°C° 0 mm 1 m/s 742 mmHg 52%
18:00 +19°C° 0 mm 1 m/s 742 mmHg 59%
19:00 +18°C° 0 mm 1 m/s 742 mmHg 66%
20:00 +15°C° 0 mm 1 m/s 742 mmHg 73%
21:00 +14°C° 0 mm 1 m/s 742 mmHg 78%
22:00 +14°C° 0 mm 1 m/s 742 mmHg 83%
23:00 +13°C° 0 mm 1 m/s 742 mmHg 88%

15 Agosto, Sábado

Tempo Temperatura Precipitação Vento Pressão Humidade
00:00 +13°C° 0 mm 1 m/s 742 mmHg 90%
01:00 +13°C° 0 mm 1 m/s 742 mmHg 93%
02:00 +13°C° 0 mm 1 m/s 742 mmHg 96%
03:00 +13°C° 0.1 mm 1 m/s 741 mmHg 96%
04:00 +13°C° 0.1 mm 1 m/s 741 mmHg 96%
05:00 +13°C° 0.1 mm 1 m/s 741 mmHg 97%
06:00 +14°C° 0.5 mm 1 m/s 741 mmHg 97%
07:00 +14°C° 0.5 mm 1 m/s 741 mmHg 98%
08:00 +14°C° 0.5 mm 1 m/s 741 mmHg 98%
09:00 +15°C° 0.3 mm 1 m/s 741 mmHg 97%
10:00 +15°C° 0.3 mm 1 m/s 741 mmHg 97%
11:00 +16°C° 0.3 mm 1 m/s 741 mmHg 96%
12:00 +16°C° 0.9 mm 2 m/s 741 mmHg 95%
13:00 +17°C° 0.9 mm 2 m/s 740 mmHg 94%
14:00 +17°C° 0.9 mm 2 m/s 740 mmHg 93%
15:00 +17°C° 1.1 mm 2 m/s 740 mmHg 93%
16:00 +17°C° 1.1 mm 2 m/s 740 mmHg 93%
17:00 +17°C° 1.1 mm 2 m/s 740 mmHg 93%
18:00 +16°C° 0.3 mm 2 m/s 741 mmHg 94%
19:00 +15°C° 0.3 mm 2 m/s 741 mmHg 96%
20:00 +13°C° 0.3 mm 3 m/s 741 mmHg 97%
21:00 +13°C° 0 mm 3 m/s 741 mmHg 97%
22:00 +13°C° 0 mm 3 m/s 741 mmHg 97%
23:00 +13°C° 0 mm 3 m/s 742 mmHg 98%

16 Agosto, Domingo

Tempo Temperatura Precipitação Vento Pressão Humidade
00:00 +12°C° 0 mm 3 m/s 742 mmHg 97%
01:00 +12°C° 0 mm 3 m/s 742 mmHg 97%
02:00 +13°C° 0 mm 2 m/s 743 mmHg 97%
03:00 +12°C° 0 mm 2 m/s 743 mmHg 97%
04:00 +10°C° 0 mm 2 m/s 743 mmHg 97%
05:00 +10°C° 0 mm 2 m/s 743 mmHg 97%
06:00 +11°C° 0 mm 3 m/s 744 mmHg 94%
07:00 +12°C° 0 mm 3 m/s 744 mmHg 90%
08:00 +14°C° 0 mm 3 m/s 744 mmHg 87%
09:00 +16°C° 0 mm 3 m/s 745 mmHg 77%
10:00 +18°C° 0 mm 3 m/s 745 mmHg 67%
11:00 +20°C° 0 mm 3 m/s 745 mmHg 58%
12:00 +20°C° 0 mm 3 m/s 745 mmHg 54%
13:00 +20°C° 0 mm 3 m/s 745 mmHg 50%
14:00 +21°C° 0 mm 3 m/s 745 mmHg 47%
15:00 +21°C° 0 mm 2 m/s 745 mmHg 49%
16:00 +20°C° 0 mm 2 m/s 745 mmHg 52%
17:00 +20°C° 0 mm 2 m/s 745 mmHg 54%
18:00 +18°C° 0 mm 2 m/s 746 mmHg 63%
19:00 +16°C° 0 mm 2 m/s 746 mmHg 71%
20:00 +14°C° 0 mm 1 m/s 746 mmHg 80%
21:00 +13°C° 0 mm 1 m/s 746 mmHg 82%
22:00 +13°C° 0 mm 1 m/s 746 mmHg 84%
23:00 +12°C° 0 mm 1 m/s 747 mmHg 86%
Mostrar mais